Location: Newark
(41.8083°N, 72.2500°W)
Time: 12:14:23
(UTC+00:00)

Explorer 11/Cluster Stage 4 - Pass Details

Date: 12 December 2021
Orbit: 467 x 1255 km, 28.8° (Epoch: 24 January)

Event Time Altitude Azimuth Distance (km) Brightness Sun altitude
Rises 05:09:02 0° 239° (WSW) 2,767 - -70.5°
Reaches altitude 10° 05:11:46 10° 219° (SW) 1,987 - -70.3°
Maximum altitude 05:14:54 18° 176° (S) 1,662 - -70.1°
Drops below altitude 10° 05:18:29 10° 135° (SE) 2,314 - -69.8°
Sets 05:22:00 0° 117° (ESE) 3,425 - -69.6°
